timestamp,surface_pressure_avg,surface_temp_avg,battery_voltage,lat,long
2019-02-18 00:00:00+00:00,333.1829,0.0,12.97,47.84626,-54.09684
2019-02-18 00:10:00+00:00,330.588,0.0,12.89,47.84626,-54.09684
2019-02-18 00:20:00+00:00,326.963,0.0,12.97,47.84626,-54.09684
2019-02-18 00:30:00+00:00,316.2347,0.0,12.97,47.84626,-54.09684
2019-02-18 00:40:00+00:00,308.9663,0.02,12.97,47.84626,-54.09684
2019-02-18 00:50:00+00:00,298.1514,0.03,12.97,47.84626,-54.09684
2019-02-18 01:00:00+00:00,288.5547,0.0,12.89,47.84626,-54.09684
2019-02-18 01:10:00+00:00,279.4963,0.01,12.81,47.84626,-54.09684
2019-02-18 01:20:00+00:00,272.0647,0.0,12.97,47.84626,-54.09684
2019-02-18 01:30:00+00:00,264.4514,0.0,12.97,47.84626,-54.09684
2019-02-18 01:40:00+00:00,256.7331,0.0,12.97,47.84626,-54.09684
2019-02-18 01:50:00+00:00,250.5697,0.0,12.97,47.84626,-54.09684
2019-02-18 02:00:00+00:00,247.4264,0.0,12.89,47.84626,-54.09684
2019-02-18 02:10:00+00:00,246.2947,0.0,12.81,47.84626,-54.09684
2019-02-18 02:20:00+00:00,241.8098,0.0,12.89,47.84626,-54.09684
2019-02-18 02:30:00+00:00,235.0931,0.0,12.89,47.84626,-54.09684
2019-02-18 02:40:00+00:00,230.0181,0.0,12.97,47.84626,-54.09684
2019-02-18 02:50:00+00:00,228.9664,0.0,12.97,47.84626,-54.09684
2019-02-18 03:00:00+00:00,225.5048,0.0,12.89,47.84626,-54.09684
2019-02-18 03:10:00+00:00,224.2481,0.0,12.81,47.84626,-54.09684
2019-02-18 03:20:00+00:00,224.6931,0.0,12.89,47.84626,-54.09684
2019-02-18 03:30:00+00:00,221.7231,0.0,12.89,47.84626,-54.09684
2019-02-18 03:40:00+00:00,215.4331,0.0,12.89,47.84626,-54.09684
2019-02-18 03:50:00+00:00,216.5081,0.0,12.97,47.84626,-54.09684
2019-02-18 04:00:00+00:00,221.8981,0.0,12.81,47.84626,-54.09684
2019-02-18 04:10:00+00:00,218.3131,0.0,12.81,47.84626,-54.09684
2019-02-18 04:20:00+00:00,212.2097,0.0,12.89,47.84626,-54.09684
2019-02-18 04:30:00+00:00,214.5598,0.0,12.89,47.84626,-54.09684
2019-02-18 04:40:00+00:00,218.5931,0.0,12.89,47.84626,-54.09684
2019-02-18 04:50:00+00:00,218.6198,0.0,12.89,47.84626,-54.09684
2019-02-18 05:00:00+00:00,218.2181,0.0,12.81,47.84626,-54.09684
2019-02-18 05:10:00+00:00,222.6798,0.0,12.73,47.84626,-54.09684
2019-02-18 05:20:00+00:00,230.9848,-0.0,12.81,47.84626,-54.09684
2019-02-18 05:30:00+00:00,239.6014,-0.0,12.81,47.84626,-54.09684
2019-02-18 05:40:00+00:00,241.9714,-0.04,12.89,47.84626,-54.09684
2019-02-18 05:50:00+00:00,240.1314,-0.1,12.89,47.84626,-54.09684
2019-02-18 06:00:00+00:00,245.2148,-0.1,12.81,47.84626,-54.09684
2019-02-18 06:10:00+00:00,254.5414,-0.1,12.73,47.84626,-54.09684
2019-02-18 06:20:00+00:00,254.6464,-0.1,12.81,47.84626,-54.09684
2019-02-18 06:30:00+00:00,256.0814,-0.1,12.81,47.84626,-54.09684
2019-02-18 06:40:00+00:00,267.6264,-0.1,12.81,47.84626,-54.09684
2019-02-18 06:50:00+00:00,280.4014,-0.1,12.89,47.84626,-54.09684
2019-02-18 07:00:00+00:00,286.9081,-0.15,12.73,47.84626,-54.09684
2019-02-18 07:10:00+00:00,295.0197,-0.2,12.73,47.84626,-54.09684
2019-02-18 07:20:00+00:00,308.1631,-0.2,12.81,47.84626,-54.09684
2019-02-18 07:30:00+00:00,315.9547,-0.2,12.81,47.84626,-54.09684
2019-02-18 07:40:00+00:00,315.1897,-0.3,12.81,47.84626,-54.09684
2019-02-18 07:50:00+00:00,321.3597,-0.3,12.81,47.84626,-54.09684
2019-02-18 08:00:00+00:00,331.493,-0.3,12.73,47.84626,-54.09684
2019-02-18 08:10:00+00:00,337.7297,-0.3,12.65,47.84626,-54.09684
2019-02-18 08:20:00+00:00,341.0046,-0.3,12.73,47.84626,-54.09684
2019-02-18 08:30:00+00:00,348.8329,-0.3,12.73,47.84626,-54.09684
2019-02-18 08:40:00+00:00,359.2713,-0.3,12.81,47.84626,-54.09684
2019-02-18 08:50:00+00:00,362.5046,-0.3,12.81,47.84626,-54.09684
2019-02-18 09:00:00+00:00,363.7012,-0.3,12.73,47.84626,-54.09684
2019-02-18 09:10:00+00:00,371.3912,-0.25,12.65,47.84626,-54.09684
2019-02-18 09:20:00+00:00,377.4513,-0.22,12.73,47.84626,-54.09684
2019-02-18 09:30:00+00:00,381.4712,-0.22,12.73,47.84626,-54.09684
2019-02-18 09:40:00+00:00,382.4746,-0.22,12.81,47.84626,-54.09684
2019-02-18 09:50:00+00:00,379.6213,-0.22,12.81,47.84626,-54.09684
2019-02-18 10:00:00+00:00,381.2362,-0.2,12.73,47.84626,-54.09684
2019-02-18 10:10:00+00:00,384.3162,-0.12,12.65,47.84626,-54.09684
2019-02-18 10:20:00+00:00,389.0511,-0.1,12.73,47.84626,-54.09684
2019-02-18 10:30:00+00:00,391.2996,-0.1,12.73,47.84626,-54.09684
2019-02-18 10:40:00+00:00,389.3996,-0.1,12.73,47.84626,-54.09684
2019-02-18 10:50:00+00:00,389.1929,-0.1,12.81,47.84626,-54.09684
2019-02-18 11:00:00+00:00,393.0112,-0.1,12.73,47.84626,-54.09684
2019-02-18 11:10:00+00:00,395.0729,-0.1,12.65,47.84626,-54.09684
2019-02-18 11:20:00+00:00,392.4245,-0.1,13.37,47.84626,-54.09684
2019-02-18 11:30:00+00:00,390.3262,-0.1,13.68,47.84626,-54.09684
2019-02-18 11:40:00+00:00,388.673,-0.1,15.27,47.84626,-54.09684
2019-02-18 11:50:00+00:00,381.6229,-0.1,16.95,47.84626,-54.09684
2019-02-18 12:00:00+00:00,370.8046,-0.1,16.79,47.84626,-54.09684
2019-02-18 12:10:00+00:00,366.2612,-0.1,17.03,47.84626,-54.09684
2019-02-18 12:20:00+00:00,364.0579,-0.1,17.03,47.84626,-54.09684
2019-02-18 12:30:00+00:00,361.363,-0.1,16.55,47.84626,-54.09684
2019-02-18 12:40:00+00:00,349.783,-0.1,16.15,47.84626,-54.09684
2019-02-18 12:50:00+00:00,340.7013,-0.1,15.83,47.84626,-54.09684
2019-02-18 13:00:00+00:00,333.8447,-0.12,14.96,47.84626,-54.09684
2019-02-18 13:10:00+00:00,321.9763,-0.16,15.99,47.84626,-54.09684
2019-02-18 13:20:00+00:00,309.428,-0.14,15.51,47.84626,-54.09684
2019-02-18 13:30:00+00:00,303.2796,-0.13,15.04,47.84626,-54.09684
2019-02-18 13:40:00+00:00,294.6514,-0.15,14.8,47.84626,-54.09684
2019-02-18 13:50:00+00:00,282.1398,-0.12,14.96,47.84626,-54.09684
2019-02-18 14:00:00+00:00,267.1647,-0.11,15.51,47.84626,-54.09684
2019-02-18 14:10:00+00:00,260.3581,-0.1,15.75,47.84626,-54.09684
2019-02-18 14:20:00+00:00,258.5281,-0.1,15.04,47.84626,-54.09684
2019-02-18 14:30:00+00:00,251.5247,-0.1,14.8,47.84626,-54.09684
2019-02-18 14:40:00+00:00,239.4847,-0.1,14.88,47.84626,-54.09684
2019-02-18 14:50:00+00:00,237.3331,-0.1,14.8,47.84626,-54.09684
2019-02-18 15:00:00+00:00,233.9564,-0.1,15.2,47.84626,-54.09684
2019-02-18 15:10:00+00:00,218.4514,-0.1,14.64,47.84626,-54.09684
2019-02-18 15:20:00+00:00,207.6148,-0.1,15.35,47.84626,-54.09684
2019-02-18 15:30:00+00:00,209.5915,-0.1,15.27,47.84626,-54.09684
2019-02-18 15:40:00+00:00,204.1248,-0.1,15.27,47.84626,-54.09684
2019-02-18 15:50:00+00:00,192.0448,-0.1,15.2,47.84626,-54.09684
2019-02-18 16:00:00+00:00,189.1414,-0.1,15.04,47.84626,-54.09684
2019-02-18 16:10:00+00:00,188.2565,-0.1,14.96,47.84626,-54.09684
2019-02-18 16:20:00+00:00,186.7565,-0.1,15.04,47.84626,-54.09684
2019-02-18 16:30:00+00:00,189.8631,-0.1,15.04,47.84626,-54.09684
2019-02-18 16:40:00+00:00,196.1432,-0.04,15.04,47.84626,-54.09684
2019-02-18 16:50:00+00:00,200.4982,-0.0,14.96,47.84626,-54.09684
2019-02-18 17:00:00+00:00,198.0497,0.0,14.88,47.84626,-54.09684
2019-02-18 17:10:00+00:00,192.2764,0.0,14.88,47.84626,-54.09684
2019-02-18 17:20:00+00:00,189.1315,0.0,14.88,47.84626,-54.09684
2019-02-18 17:30:00+00:00,195.4831,-0.0,14.88,47.84626,-54.09684
2019-02-18 17:40:00+00:00,199.3148,-0.0,14.88,47.84626,-54.09684
2019-02-18 17:50:00+00:00,195.7648,-0.01,14.88,47.84626,-54.09684
2019-02-18 18:00:00+00:00,202.8248,-0.02,14.72,47.84626,-54.09684
2019-02-18 18:10:00+00:00,208.5048,-0.01,14.72,47.84626,-54.09684
2019-02-18 18:20:00+00:00,207.7448,-0.01,14.8,47.84626,-54.09684
2019-02-18 18:30:00+00:00,210.9198,-0.03,14.72,47.84626,-54.09684
2019-02-18 18:40:00+00:00,219.8597,-0.07,14.72,47.84626,-54.09684
2019-02-18 18:50:00+00:00,227.2798,-0.1,14.72,47.84626,-54.09684
2019-02-18 19:00:00+00:00,228.6014,-0.1,14.64,47.84626,-54.09684
2019-02-18 19:10:00+00:00,230.7098,-0.1,14.48,47.84626,-54.09684
2019-02-18 19:20:00+00:00,238.6781,-0.1,14.56,47.84626,-54.09684
2019-02-18 19:30:00+00:00,247.1348,-0.1,14.56,47.84626,-54.09684
2019-02-18 19:40:00+00:00,253.3481,-0.1,14.48,47.84626,-54.09684
2019-02-18 19:50:00+00:00,257.3681,-0.1,14.48,47.84626,-54.09684
2019-02-18 20:00:00+00:00,266.9714,-0.1,14.32,47.84626,-54.09684
2019-02-18 20:10:00+00:00,278.9397,-0.13,14.08,47.84626,-54.09684
2019-02-18 20:20:00+00:00,284.8364,-0.16,14.08,47.84626,-54.09684
2019-02-18 20:30:00+00:00,289.3113,-0.17,14.0,47.84626,-54.09684
2019-02-18 20:40:00+00:00,303.918,-0.15,14.0,47.84626,-54.09684
2019-02-18 20:50:00+00:00,318.4697,-0.17,13.92,47.84626,-54.09684
2019-02-18 21:00:00+00:00,320.613,-0.2,13.76,47.84626,-54.09684
2019-02-18 21:10:00+00:00,322.0013,-0.2,13.6,47.84626,-54.09684
2019-02-18 21:20:00+00:00,331.543,-0.2,13.6,47.84626,-54.09684
2019-02-18 21:30:00+00:00,340.4462,-0.19,13.53,47.84626,-54.09684
2019-02-18 21:40:00+00:00,342.6113,-0.2,13.53,47.84626,-54.09684
2019-02-18 21:50:00+00:00,345.1713,-0.2,13.53,47.84626,-54.09684
2019-02-18 22:00:00+00:00,354.433,-0.2,13.37,47.84626,-54.09684
2019-02-18 22:10:00+00:00,357.6063,-0.2,13.21,47.84626,-54.09684
2019-02-18 22:20:00+00:00,355.5729,-0.2,13.21,47.84626,-54.09684
2019-02-18 22:30:00+00:00,364.0313,-0.2,13.21,47.84626,-54.09684
2019-02-18 22:40:00+00:00,373.2413,-0.2,13.21,47.84626,-54.09684
2019-02-18 22:50:00+00:00,375.1213,-0.2,13.21,47.84626,-54.09684
2019-02-18 23:00:00+00:00,373.7878,-0.2,13.05,47.84626,-54.09684
2019-02-18 23:10:00+00:00,377.1329,-0.2,12.97,47.84626,-54.09684
2019-02-18 23:20:00+00:00,375.3662,-0.2,12.97,47.84626,-54.09684
2019-02-18 23:30:00+00:00,365.4579,-0.2,12.97,47.84626,-54.09684
2019-02-18 23:40:00+00:00,359.6846,-0.2,13.05,47.84626,-54.09684
2019-02-18 23:50:00+00:00,358.2363,-0.24,13.05,47.84626,-54.09684
